Regional Weather Roundup
Issued by NWS Boston, MA

Home | Current Version | Previous Version | Text Only | Print | Product List | Glossary On
Versions: 1 2 3 4 5 6 7 8 9 10 11 12 13 14 15 16 17 18 19 20 21 22 23 24 25 26 27 28
000
ASUS41 KBOX 091210
RWRBOX

REGIONAL WEATHER ROUNDUP
NATIONAL WEATHER SERVICE TAUNTON MA
700 AM EST FRI DEC 09 2016

NOTE:  "FAIR" INDICATES FEW OR NO CLOUDS BELOW 12,000 FEET WITH NO
SIGNIFICANT WEATHER AND/OR OBSTRUCTIONS TO VISIBILITY.

MAZALL-091300-
EASTERN MASSACHUSETTS

CITY           SKY/WX    TMP DP  RH WIND       PRES   REMARKS
BOSTON         PTCLDY    32  19  58 W17G23    29.90R WCI  21
6HR MIN TEMP:  31; 6HR MAX TEMP:  34;

BEVERLY        PTCLDY    31  18  58 W8        29.88R WCI  23
LAWRENCE       CLEAR     31  18  58 W10       29.88R WCI  22
BEDFORD        PTCLDY    29  16  58 W7        29.89R WCI  22
BLUE HILL        N/A     27  17  66 W14G28    29.86R WCI  16
NORWOOD        PTCLDY    31  18  58 W9        29.90R WCI  23
MARSHFIELD     CLEAR     30  19  64 W8        29.90R WCI  23
PLYMOUTH       CLEAR     28  18  66 W7        29.91R WCI  21
TAUNTON        PTCLDY    30  18  60 W8        29.91R WCI  22
NEW BEDFORD    CLEAR     32  19  58 W13       29.91R WCI  22
$$

MAZALL-091300-
CAPE COD AND THE ISLANDS

CITY           SKY/WX    TMP DP  RH WIND       PRES   REMARKS
FALMOUTH       CLEAR     32  19  59 MISG      29.90S
HYANNIS        CLEAR     32  18  56 W10G23    29.89R WCI  24
CHATHAM        CLEAR     33  19  56 W12G21    29.90R WCI  24
PROVINCETOWN   CLEAR     34  22  61 W23G32    29.89R WCI  22
NANTUCKET      CLEAR     34  20  56 W17G26    29.92R WCI  23
MARTHAS VNYRD  CLEAR     34  20  56 W17G31    29.93R WCI  23
$$

MAZALL-091300-
CENTRAL AND WESTERN MASSACHUSETTS

CITY           SKY/WX    TMP DP  RH WIND       PRES   REMARKS
WORCESTER      PTCLDY    27  17  66 W23G36    29.86R WCI  12
6HR MIN TEMP:  26; 6HR MAX TEMP:  28; 6HR PCP: TRACE;

FITCHBURG      MOCLDY    32  17  54 NW12      29.89R WCI  23
ORANGE         CLEAR     29  17  61 NW15G32   29.90R WCI  18
SPRINGFIELD    PTCLDY    31  17  57 W21       29.93R WCI  18
WESTFIELD      MOCLDY    31  20  63 NW13G24   29.95R WCI  21
NORTH ADAMS    PTCLDY    27  12  53 W15G25    29.95R WCI  15
PITTSFIELD     CLEAR     24  14  65 W16G31    29.91R WCI  11
$$

RIZALL-091300-
RHODE ISLAND

CITY           SKY/WX    TMP DP  RH WIND       PRES   REMARKS
PROVIDENCE     PTCLDY    30  18  60 W8        29.94R WCI  22
6HR MIN TEMP:  29; 6HR MAX TEMP:  33;

NEWPORT        CLEAR     31  21  66 W8G16     29.94R WCI  23
BLOCK ISLAND   CLEAR     35  20  54 NW18G31   29.97R WCI  24
SMITHFIELD     CLEAR     28  19  69 W7G16     29.90R WCI  21
WESTERLY       CLEAR     32  17  54 MISG      29.97R
$$

CTZALL-091300-
CONNECTICUT

CITY           SKY/WX    TMP DP  RH WIND       PRES   REMARKS
BRADLEY INTL   PTCLDY    31  19  61 NW14G22   29.96R WCI  21
6HR MIN TEMP:  26; 6HR MAX TEMP:  31;

HARTFORD       PTCLDY    31  19  61 W8        29.98R WCI  23
BRIDGEPORT     CLEAR     34  19  54 W12G17    30.01R WCI  25
DANBURY        CLEAR     30  17  58 W6        30.01R WCI  24
GROTON         CLEAR     34  20  56 W8        29.97R WCI  27
NEW HAVEN      CLEAR     33  20  58 W14       30.00R WCI  23
CHESTER        FAIR      30  18  59 VRB6G14   29.96R WCI  24
MERIDEN        MOCLDY    32  18  56 W7        29.99R WCI  26
WILLIMANTIC    MOCLDY    32  19  58 S3        29.96R
OXFORD         PTCLDY    28  16  59 W8        29.98R WCI  20
$$

MEZ002-015-021-024-NHZ003-005-008-011-012-014-VTZ005-008-091300-
NORTHERN NEW ENGLAND

CITY           SKY/WX    TMP DP  RH WIND       PRES   REMARKS
PORTLAND ME    PTCLDY    28  14  55 W12       29.82R WCI  18
6HR MIN TEMP:  28; 6HR MAX TEMP:  31;

BANGOR ME      PTCLDY    24  17  74 W8        29.74R WCI  15
CONCORD NH     PTCLDY    30  15  53 NW14G28   29.87R WCI  19
MANCHESTER NH  MOCLDY    31  16  54 W10       29.87R WCI  22
NASHUA NH      PTCLDY    30  19  63 NW8       29.90R WCI  22
PORTSMOUTH NH  PTCLDY    30  18  60 W9        29.85R WCI  22
JAFFREY NH     CLEAR     27  17  66 NW7       29.86R WCI  19
KEENE NH       CLEAR     28  16  60 W13       29.91  WCI  17
BURLINGTON VT  MOCLDY    26  14  60 NW16G26   29.95R WCI  14
MT. WASHINGTON SNOW       0   0 100 W71G81      N/A  VSB 0   WCI -36
$$

NYZ052-076-091300-
EASTERN NEW YORK

CITY           SKY/WX    TMP DP  RH WIND       PRES   REMARKS
ALBANY         PTCLDY    27  16  63 NW15      30.01R WCI  15
6HR MIN TEMP:  27; 6HR MAX TEMP:  32; 6HR PCP: TRACE;

NEW YORK CITY  PTCLDY    34  18  52 W17       30.07R WCI  23
6HR MIN TEMP:  34; 6HR MAX TEMP:  36;

$$

ANZALL-091300-
MARINE OBSERVATIONS

STATION/POSITION TIME  TEMP    WIND        PRES    VSBY  WAVE
                       AIR SEA DIR/SP/G                  HT/PER
                 (UTC) (F)     (DEG/KT/KT) (MB)    (MI)  (FT/S)
BOSTON BUOY      1150   36 50  270/ 23/ 27 1010.6R         3/ 4
BUZZARDS BAY     1100   35     290/ 30/ 35 1013.2R
NANTUCKET SOUND  NOT AVBL
MASS BAY-STELLWA 1104   36 47  280/ 21/ 29 1010.1R  1 7/8  5/ 4
ISLE OF SHOALS   1100   33     260/ 19/ 22 1010.0R
S OF BLOCK IS    1155      54                N/A           7/ 6
$$

......................KEY.........................
  SKY/WX - SKY CONDITION/PRESENT WEATHER
  TMP    - TEMPERATURE IN FAHRENHEIT
  DWPT   - DEWPOINT IN FAHRENHEIT
  RH     - RELATIVE HUMIDITY IN PERCENT
  WIND   - DIRECTION AND SPEED IN MPH
  PRES   - MEAN SEA LEVEL PRESSURE IN INCHES OF HG
  WCI    - WIND CHILL INDEX
  VSB    - VISIBILITY IN MILES
  HX     - HEAT INDEX
  TC     - TEMPERATURE IN CELSIUS
  VRB    - VARIABLE WIND DIRECTION
  N/A    - NOT AVAILABLE




USA.gov is the U.S. government's official web portal to all federal, state and local government web resources and services.